Regional Weather Roundup
Issued by NWS Spokane, WA

Home | Current Version | Previous Version | Text Only | Print | Product List | Glossary On
Versions: 1 2 3 4 5 6 7 8 9 10 11 12 13 14 15 16 17 18 19 20 21 22 23 24 25 26 27 28 29 30 31 32 33 34 35 36 37 38 39 40 41 42 43 44 45 46 47 48 49 50
000
NZUS01 KOTX 261325
RWROTX

Eastern Washington/Northern Idaho Roundup
National Weather Service, Spokane WA
600 AM PDT TUE SEP 26 2017

Note: "fair" indicated few or no clouds below 12,000 feet with no
significant weather and/or obstructions to visibility.

...Northeast Washington and Northern Idaho Panhandle...

CITY           SKY/WX    TMP DP  RH WIND       PRES   REMARKS
Spokane Intl   PTCLDY    49  44  83 SE7       30.15R
Spokane Downto CLEAR     48  46  93 NE3       30.15R
Coeur d Alene  CLEAR     49  46  90 SE3       30.16R
Deer Park      CLOUDY    47  45  93 CALM      30.15R
Sandpoint      CLOUDY    43  43 100 CALM      30.17R
Bonners Ferry  PTSUNNY   41  41 100 CALM      30.17R

...Southeast Washington and southern Idaho Panhandle...

CITY           SKY/WX    TMP DP  RH WIND       PRES   REMARKS
Walla Walla    CLOUDY    60  50  69 SE5       30.13R
Pullman/Moscow CLEAR     47  41  80 CALM      30.18R
Lewiston       MOCLDY    53  48  83 CALM      30.15R
Lowell           N/A     49  46  90 CALM      30.20R
Grangeville    CLOUDY    46  45  93 CALM      30.18R

...Columbia Basin...

CITY           SKY/WX    TMP DP  RH WIND       PRES   REMARKS
Ephrata        CLEAR     48  40  73 N3        30.12R
Moses Lake     CLEAR     44  40  85 N6        30.13R
Pasco          CLOUDY    57  53  86 N6        30.12R
Richland       MOSUNNY   58  52  78 CALM      30.13R
Hermiston      CLOUDY    59  51  75 S3        30.12R
Pendleton      CLOUDY    53  48  83 SE6       30.13R

...East Slopes Cascades...

CITY           SKY/WX    TMP DP  RH WIND       PRES   REMARKS
The Dalles     CLEAR     53  49  86 E6        30.12R
Yakima         CLEAR     48  44  86 W9        30.14R
Ellensburg     CLEAR     45  41  86 E6        30.14R
Stampede Pass  FOG       46  45  96 VRB5      30.19R VSB 1/4
Wenatchee      CLEAR     51  45  79 W8        30.13S
Omak           CLEAR     52  46  80 N12       30.14R
Chelan           N/A     50  41  71 MISG        N/A
Sunnyside      SUNNY     44  43  96 CALM      30.13R

...Southern British Columbia...

CITY           SKY/WX    TMP DP  RH WIND       PRES   REMARKS
Penticton      PTCLDY    45  45 100 CALM      30.16R
Castlegar      FOG       46  45  93 CALM      30.18  VSB 1/4
Cranbrook      PTCLDY    37  37 100 S7        30.16R
Osoyoos          N/A     46  45  93 CALM        N/A
Creston          N/A     48  43  81 NE5         N/A

...Western Montana...

CITY           SKY/WX    TMP DP  RH WIND       PRES   REMARKS
Kalispell      FOG       37  37 100 CALM      30.16R VSB 1/4
Missoula       CLOUDY    45  44  97 CALM      30.18R

...Neighboring Cities...

CITY           SKY/WX    TMP DP  RH WIND       PRES   REMARKS
Seattle        PTCLDY    55  53  93 CALM      30.17R
Portland       MOCLDY    57  55  93 CALM      30.13S
Boise          CLOUDY    51  38  60 SE8       30.13R
Great Falls    CLOUDY    48  39  71 SW12      30.09S
Calgary        MOCLDY    54  37  54 NW10      30.08R



USA.gov is the U.S. government's official web portal to all federal, state and local government web resources and services.